Location: Cargill Incorporated Elevator
(42.7294°N, 93.7333°W)
Time: 18:44:16
(UTC+00:00)

Cosmos 1697 Rocket - Pass Details

Date: 19 January 2026
Orbit: 830 x 844 km, 71.0° (Epoch: 17 February)

Event Time Altitude Azimuth Distance (km) Brightness Sun altitude
Rises 23:44:00 0° 344° (NNW) 3,407 5.8 -6.2°
Reaches altitude 10° 23:47:01 10° 360° (N) 2,470 4.9 -6.8°
Maximum altitude 23:51:24 23° 51° (NE) 1,745 3.8 -7.5°
Drops below altitude 10° 23:55:46 10° 102° (ESE) 2,462 4.6 -8.3°
Sets 23:58:45 0° 117° (ESE) 3,393 5.4 -8.8°
